Regional Weather Roundup
Issued by NWS

Home | Current Version | Previous Version | Text Only | Print | Product List | Glossary Off
Versions: 1 2 3 4 5 6 7 8 9 10 11 12 13 14 15 16 17 18 19 20 21 22 23 24 25 26 27

000
ASUS45 KBOU 231407
RWRCO

WEATHER ROUNDUP FOR COLORADO
NATIONAL WEATHER SERVICE DENVER/BOULDER CO
800 AM MDT TUE MAY 23 2017

NOTE: "FAIR" INDICATES FEW OR NO CLOUDS BELOW 12000 FEET WITH NO
SIGNIFICANT WEATHER AND/OR OBSTRUCTIONS TO VISIBILITY.

COZ001>005-013-030-031-231500-
...NORTHWEST COLORADO...

CITY           SKY/WX    TMP DP  RH WIND       PRES   REMARKS
CRAIG          CLOUDY    38  34  85 CALM      30.35F
HAYDEN         CLOUDY    37  30  75 CALM      30.35S
MEEKER         FAIR      36  33  89 CALM      30.34S
RABBIT EARS PA FOG       27  27 100 W7        30.35S VSB 1/4 WCI  19
STEAMBOAT SPGS CLOUDY    35  34  94 CALM      30.34S
WALDEN           N/A     32  30  93 CALM      30.34S
$$

COZ006>008-011-231500-
...WEST CENTRAL VALLEYS...

CITY           SKY/WX    TMP DP  RH WIND       PRES   REMARKS
GRAND JUNCTION FAIR      52  33  48 NW3       30.29R
MONTROSE       FAIR      47  35  63 NW5       30.33R
EAGLE          MOSUNNY   39  34  81 E5        30.37R
RIFLE          FAIR      43  35  73 CALM      30.33R
DELTA          FAIR      53  37  54 SE3       30.30R
NUCLA          FAIR      52  30  43 CALM      30.32R
$$

COZ017>023-064>068-231500-
...SOUTHWEST COLORADO...

CITY           SKY/WX    TMP DP  RH WIND       PRES   REMARKS
DURANGO        FAIR      50  32  50 E8        30.17S
CORTEZ         FAIR      56  34  43 N8        30.21S
PAGOSA SPRINGS FAIR      52  14  22 N3        30.22S
TELLURIDE      FAIR      37  37 100 CALM      30.35R
WOLF CREEK PAS FAIR      28  18  64 NW12G21   30.38R WCI  18
$$

COZ009-010-012-014-032>034-037-058>063-231500-
...CENTRAL COLORADO...

CITY           SKY/WX    TMP DP  RH WIND       PRES   REMARKS
ASPEN          FAIR      37  33  85 CALM      30.32S
BUENA VISTA    FAIR      40  27  58 NW17      30.29S
COPPER MTN     HAZE      25  19  80 MISG      30.36R VSB 1/4
BERTHOUD PASS  CLOUDY    16   5  62 NW21      30.32R WCI  -2
COTTONWOOD PAS FAIR      34  25  69 CALM      30.32R
GUNNISON       FAIR      40  30  67 CALM      30.31R
KREMMLING      FAIR      41  34  75 CALM      30.35S
LEADVILLE      FAIR      28  21  75 N15       30.32R WCI  16
MONARCH PASS   FAIR      25  12  58 NW7       30.45R WCI  17
SALIDA         FAIR      40  36  87 CALM      30.37S
SUNLIGHT       FAIR      27  21  80 CALM      30.42R
WILKERSON PASS FAIR      27  21  80 N8        30.35R WCI  18
$$

COZ069>075-231500-
...SAN LUIS VALLEY/SANGRE DE CRISTO MOUNTAINS...

CITY           SKY/WX    TMP DP  RH WIND       PRES   REMARKS
ALAMOSA        FAIR      41  34  76 NW5       30.26R
DEL NORTE      FAIR      41  31  66 NE6       30.28S
LA VETA PASS   CLOUDY    30  27  86 CALM      30.41R
SAGUACHE       FAIR      43  30  61 NW12      30.27F
$$

COZ035-036-038>040-231500-
...NORTHERN COLORADO FRONT RANGE...

CITY           SKY/WX    TMP DP  RH WIND       PRES   REMARKS
DENVER INTL AP FAIR      45  34  65 NW8       30.22S
DMNS CITY PARK   N/A     50  33  51 W8        30.23S
AURORA         MOSUNNY   46  37  69 W7        30.24R
FRONT RANGE AP PTSUNNY   46  41  81 NW8       30.23S
ERIE MUNI ARPT FAIR      49  40  70 CALM      30.22F
BOULDER MUN AP FAIR      50  32  50 W6        30.22S
CENTENNIAL     FAIR      46  33  60 NW10      30.23S
BROOMFIELD     MOSUNNY   48  30  49 W8        30.24S
FORT COLLINS   FAIR      46  36  68 NE6       30.23R
LONGMONT       FAIR      53  38  58 CALM      30.23F
$$

COZ041-046-047-076>085-087-088-231500-
...PIKES PEAK/PALMER DIVIDE AND SOUTHERN FOOTHILLS...

CITY           SKY/WX    TMP DP  RH WIND       PRES   REMARKS
COLO. SPRINGS  FAIR      47  30  51 NW13      30.26R
A. F. ACADEMY  FAIR      45  29  53 N15G21    30.24S
SCHRIEVER AFB  FAIR      45  30  55 NW14G23   30.25R
CHEYENNE MTN   FAIR      45  27  50 N15G24    30.19S
ELLICOTT       FAIR     N/A N/A N/A N14       30.22S
FALCON         FAIR      42  30  62 NW10G16   30.26R
FORT CARSON    FAIR      48  31  51 N7        30.24S
LIMON          FAIR      46  37  71 N20G30    30.20S
MONUMENT HILL  FAIR      39  32  75 NW12      30.26R
CANON CITY     NOT AVBL
WALSENBURG     FAIR      46  39  76 W7        30.26S
TRINIDAD       FAIR      47  36  65 NW12      30.25R
$$

COZ042>045-048>051-090-091-231500-
...NORTHEAST COLORADO...

CITY           SKY/WX    TMP DP  RH WIND       PRES   REMARKS
GREELEY ARPT   CLOUDY    48  37  65 N14       30.22S
AKRON          FAIR      48  38  68 N21       30.17S
BURLINGTON     FAIR      49  41  74 NW15      30.15S
WRAY           FAIR      52  37  58 NW18G24   30.14S
YUMA           FAIR      45  37  76 NW17      30.15S
STERLING       FAIR      46  39  76 N15       30.16R
HOLYOKE        NOT AVBL
FORT MORGAN    PTSUNNY   51  37  57 NW18      30.20S
$$

COZ086-089-092>099-231500-
...SOUTHEAST COLORADO...

CITY           SKY/WX    TMP DP  RH WIND       PRES   REMARKS
PUEBLO         FAIR      51  42  71 W7        30.23R
LA JUNTA       FAIR      53  39  59 NW12      30.20S
LAMAR          FAIR      52  39  61 N16       30.15F
SPRINGFIELD      N/A     49  40  71 NW20G28   30.16S
$$




USA.gov is the U.S. government's official web portal to all federal, state and local government web resources and services.